ATLAS 5 CENTAUR DEB, 45472

Orbit data source: Space-Track

ATLAS 5 CENTAUR DEB, 45472 is space debris in HEO originally from a launch on Wed, 17 Oct 2018 UTC launched from the Air Force Eastern Test Range (AFETR). Debris objects in space refer to the collection of defunct objects orbiting the Earth. Examples of debris include non-operational satellites, rocket bodies, and fragments generated from explosions, collisions, or faulty payload assembly.

Loading next visibility...
Identifier
45472, 2018-079BU
Orbit
HEO
Country
Flag of USUS
Related business
Flag of USUnited Launch Alliance/Lockheed Martin (US)
Manufacturer
ULA Decatur
Mission
Spacecraft
Bus & Motor
Unknown
Mass
Unknown
Launch date (UTC)
2018-10-17 (8 years ago)
Launch vehicle
Unknown
Launch site
Air Force Eastern Test Range (AFETR)
Object type
Payload
Rocket body
Debris
Shape & HBR
Unknown shape, 1.1 m
Radar Cross Section
Medium (>0.1 m² and <1 m²)

Expand to show TLE details & history
Last TLE update: 3 months ago

TLE from 3 months ago
0 ATLAS 5 CENTAUR DEB
1 45472U 18079BU  26149.39066091 -.00000092  00000-0  00000-0 0  9995
2 45472  13.4083  31.2348 4781983 323.2808  12.0197  1.81833165 32281
Epoch: 2026-05-29T09:22Z
TLE epoch observation values (Epoch: 2026-05-29T09:22:33.102Z)
Latitude
0.00014°
Longitude
3.61894°
Altitude
9,452.922 km
Speed
6.025 km/s
True Right ascension
02h 04m 42s
True Declination
0° 00' 00"
Sunlit
Object was in daylight at epoch
Visualization orbit readout
Latitude
Unknown
Longitude
Unknown
Altitude
Unknown
Speed
Unknown
Apparent Right ascension
Unknown
Apparent Declination
Unknown
Sunlit
N/A
Visualization observer readout
Local Sidereal Time
15:57:38
Azimuth
Unknown
Elevation
Unknown
Doppler factor
Unknown
Orbital elements
Apogee altitude
35,538.365 km
Perigee altitude
8,418.323 km
Semi-major axis
28,356.481 km
Eccentricity
0.4782
Inclination
13.4083°
RAAN
31.2348°
Arg. of periapsis
323.2808°
True anomaly
37.03367°
Mean anomaly
12.0197°
Eccentric anomaly
22.5085°
Mean motion
0.45453 °/min
Orbital period
792.02 mins
BSTAR
0
Loading maneuver chart data...
Computing Atmospheric mass density...

Documentation

Showing up to 5 results
|